When you browse on this site, cookies collect data to enhance your experience and personalize the content and advertising you see.
Visit our Privacy Policy to learn more. By continuing to use the site, you agree to this use of cookies and data.
  • In Lithuania
  • List of Countries
  • For 7 days
  • Water Temperature
  • Satellite Maps
  • Weather Map
  • Weather Widgets
  • user-avatar
    Login

    Hourly Weather Yulara

    Today, 17 December, Monday

    Time Temperature Precipitation Wind Pressure Humidity
    00:00 +35°C° 0 mm 7 mps 711 mmHg 13%
    01:00 +34°C° 0 mm 7 mps 711 mmHg 14%
    02:00 +33°C° 0 mm 7 mps 711 mmHg 15%
    03:00 +33°C° 0 mm 7 mps 711 mmHg 15%
    04:00 +32°C° 0 mm 7 mps 711 mmHg 16%
    05:00 +32°C° 0 mm 6 mps 711 mmHg 16%
    06:00 +30°C° 0 mm 6 mps 712 mmHg 17%
    07:00 +34°C° 0 mm 6 mps 712 mmHg 15%
    08:00 +36°C° 0 mm 7 mps 712 mmHg 13%
    09:00 +40°C° 0 mm 8 mps 713 mmHg 10%
    10:00 +43°C° 0 mm 8 mps 712 mmHg 10%
    11:00 +45°C° 0 mm 8 mps 712 mmHg 9%
    12:00 +48°C° 0 mm 9 mps 712 mmHg 8%
    13:00 +48°C° 0 mm 8 mps 711 mmHg 9%
    14:00 +48°C° 0 mm 8 mps 711 mmHg 9%
    15:00 +48°C° 0 mm 8 mps 710 mmHg 10%
    16:00 +46°C° 0 mm 7 mps 710 mmHg 11%
    17:00 +46°C° 0 mm 6 mps 710 mmHg 12%
    18:00 +45°C° 0 mm 6 mps 710 mmHg 13%
    19:00 +43°C° 0 mm 5 mps 710 mmHg 14%
    20:00 +41°C° 0 mm 4 mps 710 mmHg 16%
    21:00 +39°C° 0 mm 3 mps 710 mmHg 18%
    22:00 +39°C° 0.1 mm 3 mps 710 mmHg 18%
    23:00 +38°C° 0.1 mm 4 mps 711 mmHg 18%

    Tomorrow, 18 December, Tuesday

    Time Temperature Precipitation Wind Pressure Humidity
    00:00 +38°C° 0.1 mm 4 mps 711 mmHg 19%
    01:00 +38°C° 0.1 mm 4 mps 711 mmHg 19%
    02:00 +37°C° 0.1 mm 5 mps 711 mmHg 19%
    03:00 +37°C° 0.1 mm 5 mps 710 mmHg 19%
    04:00 +36°C° 0 mm 6 mps 711 mmHg 17%
    05:00 +35°C° 0 mm 6 mps 711 mmHg 16%
    06:00 +34°C° 0 mm 6 mps 712 mmHg 15%
    07:00 +36°C° 0 mm 5 mps 712 mmHg 14%
    08:00 +37°C° 0 mm 5 mps 712 mmHg 13%
    09:00 +38°C° 0 mm 4 mps 713 mmHg 12%
    10:00 +41°C° 0 mm 4 mps 713 mmHg 12%
    11:00 +42°C° 0 mm 4 mps 712 mmHg 11%
    12:00 +44°C° 0 mm 4 mps 712 mmHg 11%
    13:00 +46°C° 0 mm 5 mps 712 mmHg 11%
    14:00 +46°C° 0 mm 6 mps 712 mmHg 10%
    15:00 +48°C° 0 mm 8 mps 711 mmHg 10%
    16:00 +47°C° 0 mm 7 mps 711 mmHg 10%
    17:00 +46°C° 0 mm 7 mps 711 mmHg 10%
    18:00 +45°C° 0 mm 7 mps 711 mmHg 10%
    19:00 +44°C° 0 mm 7 mps 712 mmHg 11%
    20:00 +41°C° 0 mm 6 mps 712 mmHg 12%
    21:00 +40°C° 0 mm 6 mps 713 mmHg 13%
    22:00 +38°C° 0 mm 7 mps 713 mmHg 15%
    23:00 +37°C° 0 mm 8 mps 713 mmHg 16%

    Day after tomorrow, 19 December, Wednesday

    Time Temperature Precipitation Wind Pressure Humidity
    00:00 +35°C° 0 mm 9 mps 713 mmHg 18%
    01:00 +34°C° 0 mm 9 mps 713 mmHg 20%
    02:00 +32°C° 0 mm 9 mps 713 mmHg 23%
    03:00 +31°C° 0 mm 9 mps 713 mmHg 25%
    04:00 +29°C° 0 mm 9 mps 714 mmHg 31%
    05:00 +28°C° 0 mm 8 mps 714 mmHg 36%
    06:00 +27°C° 0 mm 8 mps 714 mmHg 42%
    07:00 +29°C° 0 mm 8 mps 715 mmHg 37%
    08:00 +32°C° 0 mm 7 mps 715 mmHg 33%
    09:00 +33°C° 0 mm 7 mps 716 mmHg 29%
    10:00 +35°C° 0 mm 6 mps 716 mmHg 25%
    11:00 +37°C° 0 mm 5 mps 715 mmHg 21%
    12:00 +40°C° 0 mm 4 mps 715 mmHg 17%
    13:00 +41°C° 0 mm 4 mps 715 mmHg 15%
    14:00 +41°C° 0 mm 4 mps 714 mmHg 14%
    15:00 +42°C° 0 mm 4 mps 714 mmHg 13%
    16:00 +42°C° 0 mm 4 mps 714 mmHg 13%
    17:00 +42°C° 0 mm 4 mps 714 mmHg 13%
    18:00 +41°C° 0 mm 4 mps 714 mmHg 14%
    19:00 +40°C° 0 mm 5 mps 714 mmHg 15%
    20:00 +39°C° 0 mm 6 mps 715 mmHg 16%
    21:00 +36°C° 0 mm 7 mps 715 mmHg 18%
    22:00 +35°C° 0 mm 8 mps 715 mmHg 21%
    23:00 +33°C° 0 mm 8 mps 715 mmHg 24%

    20 December, Thursday

    Time Temperature Precipitation Wind Pressure Humidity
    00:00 +32°C° 0 mm 9 mps 716 mmHg 27%
    01:00 +29°C° 0 mm 9 mps 716 mmHg 34%
    02:00 +28°C° 0 mm 9 mps 715 mmHg 40%
    03:00 +26°C° 0 mm 9 mps 715 mmHg 47%
    04:00 +26°C° 0 mm 9 mps 716 mmHg 50%
    05:00 +24°C° 0 mm 8 mps 716 mmHg 52%
    06:00 +23°C° 0 mm 8 mps 717 mmHg 55%
    07:00 +26°C° 0 mm 7 mps 717 mmHg 49%
    08:00 +28°C° 0 mm 7 mps 718 mmHg 42%
    09:00 +30°C° 0 mm 7 mps 718 mmHg 36%
    10:00 +32°C° 0 mm 6 mps 718 mmHg 31%
    11:00 +34°C° 0 mm 5 mps 717 mmHg 26%
    12:00 +36°C° 0 mm 4 mps 717 mmHg 22%
    13:00 +37°C° 0 mm 4 mps 716 mmHg 20%
    14:00 +38°C° 0 mm 3 mps 716 mmHg 18%
    15:00 +39°C° 0 mm 3 mps 715 mmHg 16%
    16:00 +39°C° 0 mm 3 mps 715 mmHg 16%
    17:00 +39°C° 0 mm 3 mps 715 mmHg 16%
    18:00 +40°C° 0 mm 4 mps 715 mmHg 15%
    19:00 +38°C° 0 mm 6 mps 715 mmHg 19%
    20:00 +35°C° 0 mm 7 mps 716 mmHg 22%
    21:00 +33°C° 0 mm 9 mps 716 mmHg 25%
    22:00 +32°C° 0 mm 9 mps 716 mmHg 29%
    23:00 +31°C° 0 mm 9 mps 716 mmHg 33%

    21 December, Friday

    Time Temperature Precipitation Wind Pressure Humidity
    00:00 +28°C° 0 mm 9 mps 716 mmHg 36%
    01:00 +28°C° 0 mm 8 mps 716 mmHg 38%
    02:00 +27°C° 0 mm 8 mps 716 mmHg 40%
    03:00 +26°C° 0 mm 7 mps 716 mmHg 43%
    04:00 +26°C° 0 mm 7 mps 716 mmHg 45%
    05:00 +24°C° 0 mm 7 mps 716 mmHg 47%
    06:00 +23°C° 0 mm 7 mps 717 mmHg 50%
    07:00 +26°C° 0 mm 7 mps 717 mmHg 45%
    08:00 +27°C° 0 mm 8 mps 718 mmHg 40%
    09:00 +29°C° 0 mm 8 mps 718 mmHg 35%
    10:00 +30°C° 0 mm 7 mps 718 mmHg 31%
    11:00 +33°C° 0 mm 6 mps 718 mmHg 27%
    12:00 +34°C° 0 mm 6 mps 717 mmHg 23%
    13:00 +35°C° 0 mm 5 mps 717 mmHg 22%
    14:00 +36°C° 0 mm 4 mps 716 mmHg 20%
    15:00 +37°C° 0 mm 3 mps 716 mmHg 19%
    16:00 +37°C° 0 mm 4 mps 716 mmHg 18%
    17:00 +37°C° 0 mm 5 mps 716 mmHg 17%
    18:00 +37°C° 0 mm 5 mps 716 mmHg 16%
    19:00 +35°C° 0 mm 6 mps 717 mmHg 17%
    20:00 +34°C° 0 mm 7 mps 717 mmHg 17%
    21:00 +32°C° 0 mm 8 mps 717 mmHg 18%
    22:00 +31°C° 0 mm 8 mps 717 mmHg 19%
    23:00 +29°C° 0 mm 8 mps 717 mmHg 19%

    22 December, Saturday

    Time Temperature Precipitation Wind Pressure Humidity
    00:00 +28°C° 0 mm 9 mps 717 mmHg 20%
    01:00 +28°C° 0 mm 8 mps 717 mmHg 21%
    02:00 +27°C° 0 mm 8 mps 717 mmHg 23%
    03:00 +26°C° 0 mm 7 mps 717 mmHg 24%
    04:00 +24°C° 0 mm 8 mps 718 mmHg 27%
    05:00 +23°C° 0 mm 8 mps 718 mmHg 29%
    06:00 +22°C° 0 mm 8 mps 718 mmHg 32%
    07:00 +24°C° 0 mm 8 mps 719 mmHg 30%
    08:00 +26°C° 0 mm 8 mps 719 mmHg 29%
    09:00 +28°C° 0 mm 8 mps 720 mmHg 27%
    10:00 +29°C° 0 mm 8 mps 719 mmHg 24%
    11:00 +32°C° 0 mm 7 mps 719 mmHg 21%
    12:00 +34°C° 0 mm 7 mps 719 mmHg 18%
    13:00 +34°C° 0 mm 6 mps 718 mmHg 17%
    14:00 +35°C° 0 mm 6 mps 718 mmHg 15%
    15:00 +36°C° 0 mm 5 mps 717 mmHg 14%
    16:00 +36°C° 0 mm 5 mps 717 mmHg 13%
    17:00 +35°C° 0 mm 6 mps 717 mmHg 13%
    18:00 +35°C° 0 mm 6 mps 717 mmHg 12%
    19:00 +34°C° 0 mm 6 mps 718 mmHg 12%
    20:00 +32°C° 0 mm 6 mps 718 mmHg 13%
    21:00 +30°C° 0 mm 6 mps 718 mmHg 13%
    22:00 +29°C° 0 mm 6 mps 718 mmHg 14%
    23:00 +28°C° 0 mm 6 mps 718 mmHg 16%
    Show more